Location: Col de l�Artiguette
(42.7667°N, 0.6500°E)
Time: 13:51:09
(UTC+00:00)

Daily predictions for brighter satellites

Satellite Brightness Start Highest point End
(mag) Time Altitude Azimuth Time Altitude Azimuth Time Altitude Azimuth
CENTAUR R/B 4.3 19:54:02 10° NNW 20:00:55 32° NE 20:08:25 10° E
STARLINK-1101 4.0 20:00:22 10° NW 20:04:29 61° NNE 20:08:34 10° ESE
Cosmos 371 Rocket 4.0 20:00:08 10° SSW 20:04:55 60° WNW 20:09:46 10° NNE
Cosmos 2221 Rocket 3.8 20:01:49 10° S 20:06:22 80° W 20:10:56 10° N
BREEZE M DEB (TANK) 3.4 19:57:43 10° SW 20:07:20 80° SSE 20:10:24 10° ENE
MOS 1 Rocket 3.3 20:03:02 10° N 20:07:20 75° WNW 20:11:36 10° SSW
Okean 1 Rocket 4.1 20:04:37 10° NNE 20:08:31 29° ENE 20:12:22 10° SE
NOSS 2-2 (D) 3.0 20:05:57 10° SSW 20:09:28 64° ESE 20:13:15 10° NE
STARLINK-1102 3.9 20:05:22 10° NW 20:09:30 66° NNE 20:13:37 10° ESE
Aureole 2 Rocket 2.1 20:07:02 10° SSW 20:10:06 85° WNW 20:13:02 10° NNE
CZ-2C R/B 2.8 20:05:09 10° NNE 20:10:49 83° ESE 20:16:25 10° SSW
ARGOS 4.3 20:05:48 10° S 20:10:55 44° W 20:16:05 10° NNW
Cosmos 1331 Rocket 4.2 20:06:18 10° S 20:11:13 48° ESE 20:16:13 10° NNE
STARLINK-1111 3.8 20:10:22 10° NW 20:14:30 71° NE 20:18:38 10° ESE
STARLINK-52 4.0 20:14:13 10° SSW 20:16:55 25° SE 20:19:38 10° ENE
SL-4 R/B 2.4 20:14:36 10° SW 20:19:08 57° SE 20:23:52 10° ENE
Cosmos 1943 Rocket 2.7 20:14:08 10° S 20:19:12 38° ESE 20:24:21 10° NE
STARLINK-1073 3.7 20:15:19 10° NW 20:19:28 77° NE 20:23:31 11° ESE
Okean 2 Rocket 3.5 20:15:30 10° NNW 20:19:52 65° W 20:24:12 10° S
GPS 2-04 Rocket1 4.3 20:18:39 10° WSW 20:20:52 16° SSW 20:23:08 10° SSE
SPOT 3 Rocket 3.7 20:16:04 10° S 20:21:13 78° WSW 20:26:24 10° NNW
Terra 4.0 20:21:20 10° E 20:23:10 12° ENE 20:25:00 10° NE
STARLINK-1121 3.6 20:20:16 10° NW 20:24:25 83° NNE 20:28:16 12° SE
Nadezhda 4 Rocket 4.3 20:18:49 10° SSE 20:24:38 48° E 20:30:28 10° NNE
NOSS 2-2 (E) 3.6 20:22:19 10° SW 20:25:49 64° NW 20:29:44 10° NNE
OE (NEXTSAT) 4.3 20:22:42 10° WSW 20:26:12 79° SSE 20:29:42 10° ENE
Cosmos 304 Rocket 3.9 20:21:36 10° SSW 20:26:22 79° WNW 20:31:12 10° NNE
H-2A R/B 4.2 20:24:19 10° SSW 20:28:25 24° W 20:32:37 10° NW
NOSS 3-4 (A) 4.4 20:24:52 10° SSE 20:29:18 23° ESE 20:33:55 10° ENE
FALCON 9 DEB 4.3 20:26:38 10° S 20:29:20 22° SE 20:32:02 10° E
NOSS 3-4 (C) 4.5 20:25:00 10° SSE 20:29:26 22° ESE 20:34:00 10° ENE
STARLINK-1106 3.6 20:25:16 10° NW 20:29:26 90° SE 20:33:05 13° SE
Resurs 01 Rocket 1.6 20:25:10 10° SSE 20:29:37 84° ENE 20:34:06 10° NNW
USA 245 3.9 20:28:14 13° ESE 20:29:48 20° ENE 20:31:42 10° NNE
ATLAS CENTAUR R/B 3.2 20:28:18 12° SE 20:30:02 14° ESE 20:32:19 10° ENE
Cosmos 1833 Rocket 4.4 20:25:28 10° NW 20:30:11 28° WSW 20:34:53 10° SSW
Cosmos 1300 Rocket 4.3 20:26:36 10° NNW 20:30:58 56° W 20:35:16 10° S
Cosmos 1437 Rocket 3.0 20:27:53 10° SSW 20:31:39 69° W 20:35:30 10° N
SL-27 R/B 4.3 20:31:36 10° NNE 20:34:17 20° ENE 20:36:32 12° ESE
STARLINK-1112 3.6 20:30:15 10° NW 20:34:24 83° SW 20:37:52 14° SE
Cosmos 2279 Rocket 4.2 20:29:21 10° NNW 20:35:34 73° W 20:41:44 10° S
Cosmos 2151 Rocket 4.1 20:31:08 10° NNW 20:35:38 64° W 20:40:06 10° S
STARLINK-1128 3.6 20:35:13 10° NW 20:39:22 77° SW 20:42:38 16° SE
Cosmos 2297 4.3 20:36:55 10° SW 20:42:32 63° WNW 20:48:15 10° NNE
STARLINK-1113 3.7 20:40:14 10° WNW 20:44:22 70° SW 20:47:26 17° SE
STARLINK-60 3.4 20:42:17 10° WSW 20:45:25 62° NNW 20:48:35 10° NE
Cosmos 2082 Rocket 3.6 20:40:45 10° NW 20:45:53 35° WSW 20:50:58 10° SSW
STARLINK-1119 3.8 20:45:12 10° WNW 20:49:19 64° SW 20:52:12 18° SE
Cosmos 1242 Rocket 4.3 20:48:43 16° ESE 20:49:46 17° E 20:52:15 10° NE
Cosmos 2369 Rocket 2.4 20:45:13 10° S 20:50:39 50° ESE 20:56:06 10° NE
BREEZE-M DEB 2.0 20:48:48 10° SW 20:50:58 79° SSE 20:55:06 10° ENE
NOSS 2-2 (C) 4.4 20:48:07 10° WSW 20:51:31 44° NW 20:55:18 10° NNE
Cosmos 1674 Rocket 4.2 20:47:49 10° SSW 20:52:08 58° W 20:56:31 10° N
Cosmos 1378 Rocket 3.7 20:48:00 10° SSW 20:52:23 77° W 20:56:46 10° N
Abrixas rocket 3.4 20:50:25 10° W 20:52:56 25° SW 20:54:17 18° S
Cosmos 1766 3.8 20:49:16 10° N 20:53:07 45° ENE 20:55:36 20° SE
ATLAS 3B CENTAUR R/B 4.4 20:36:56 10° WSW 20:53:17 39° S 21:00:02 16° SE
STARLINK-1114 3.9 20:50:13 10° WNW 20:54:17 58° SW 20:57:00 20° SSE
MetOp-B 4.1 20:49:20 12° SSE 20:54:18 88° ENE 20:59:41 10° NNW
ATLAS 2AS CENTAUR R/B 3.3 20:49:23 10° S 20:56:49 46° ESE 21:04:18 10° NE
Meteor 1-15 Rocket 4.5 20:51:11 10° NNW 20:57:07 77° W 21:02:54 10° S
STARLINK-1130 (DARKSAT) 4.0 20:55:12 10° WNW 20:59:15 53° SW 21:01:46 21° SSE
NOSS 3-2 (A) 4.1 20:52:20 10° NW 20:59:58 81° NE 21:06:43 18° SE
Cosmos 292 Rocket 4.2 20:57:17 13° S 21:01:11 42° ESE 21:05:46 10° NNE
SL-8 R/B 3.9 20:57:31 10° WNW 21:02:13 58° SW 21:05:16 21° SE
ERS-1 Rocket 3.5 20:59:14 19° SE 21:02:35 45° ENE 21:07:22 10° N
STARLINK-1084 4.1 21:00:13 10° WNW 21:04:12 48° SW 21:06:33 22° SSE
STARLINK-1209 4.2 21:02:31 10° NW 21:05:25 34° NNE 21:07:22 17° E
BREEZE-M DEB (TANK) 4.1 20:50:17 10° WNW 21:05:31 78° NNE 21:09:24 16° ESE
STARLINK-1188 4.5 21:06:17 10° NW 21:09:00 28° NNE 21:10:59 15° E
STARLINK-1098 4.3 21:05:12 10° WNW 21:09:09 44° SW 21:11:19 23° SSE
STARLINK-1444 3.8 21:10:21 10° W 21:12:10 31° NNW 21:14:01 10° NE
STARLINK-1452 3.8 21:10:23 10° W 21:12:11 30° NNW 21:14:00 10° NE
STARLINK-1191 4.4 21:09:30 10° NW 21:12:17 30° NNE 21:14:11 16° E
STARLINK-1221 4.4 21:10:29 10° NW 21:13:17 30° NNE 21:15:08 17° E
STARLINK-1436 (VISORSAT) 3.9 21:12:09 10° W 21:13:56 29° NNW 21:15:44 10° NE
STARLINK-1450 3.9 21:12:14 10° W 21:14:01 29° NNW 21:15:50 10° NE
STARLINK-1123 4.4 21:10:14 10° WNW 21:14:07 40° SW 21:16:07 23° S
STARLINK-1392 3.9 21:12:20 10° W 21:14:07 29° NNW 21:15:55 10° NE
STARLINK-1398 3.9 21:12:20 10° W 21:14:07 29° NNW 21:15:55 10° NE
STARLINK-1399 3.9 21:12:20 10° W 21:14:07 29° NNW 21:15:56 10° NE
STARLINK-1393 3.9 21:12:21 10° W 21:14:09 29° NNW 21:15:57 10° NE
STARLINK-1395 3.9 21:12:21 10° W 21:14:09 29° NNW 21:15:57 10° NE
STARLINK-1394 3.9 21:12:21 10° W 21:14:09 29° NNW 21:15:57 10° NE
STARLINK-1415 3.9 21:12:21 10° W 21:14:09 29° NNW 21:15:57 10° NE
STARLINK-1414 3.9 21:12:21 10° W 21:14:09 29° NNW 21:15:57 10° NE
STARLINK-1396 3.9 21:12:22 10° W 21:14:09 29° NNW 21:15:58 10° NE
STARLINK-1397 3.9 21:12:22 10° W 21:14:09 29° NNW 21:15:58 10° NE
STARLINK-1416 3.9 21:12:22 10° W 21:14:10 29° NNW 21:15:58 10° NE
STARLINK-1404 3.9 21:12:22 10° W 21:14:10 29° NNW 21:15:58 10° NE
STARLINK-1401 3.9 21:12:23 10° W 21:14:10 29° NNW 21:15:59 10° NE
STARLINK-1419 3.9 21:12:23 10° W 21:14:10 29° NNW 21:15:59 10° NE
STARLINK-1408 3.9 21:12:23 10° W 21:14:10 29° NNW 21:15:59 10° NE
STARLINK-1453 3.9 21:12:24 10° W 21:14:11 29° NNW 21:16:00 10° NE
STARLINK-1437 3.9 21:12:24 10° W 21:14:11 29° NNW 21:16:00 10° NE
STARLINK-1417 3.9 21:12:24 10° W 21:14:11 29° NNW 21:16:00 10° NE
STARLINK-1402 3.9 21:12:24 10° W 21:14:11 29° NNW 21:16:00 10° NE
STARLINK-1420 3.9 21:12:25 10° W 21:14:13 29° NNW 21:16:01 10° NE
STARLINK-1413 3.9 21:12:26 10° W 21:14:13 29° NNW 21:16:02 10° NE
STARLINK-1458 3.9 21:12:26 10° W 21:14:13 29° NNW 21:16:02 10° NE
STARLINK-1406 3.9 21:12:26 10° W 21:14:13 29° NNW 21:16:02 10° NE
STARLINK-1460 3.9 21:12:26 10° W 21:14:14 29° NNW 21:16:02 10° NE
STARLINK-1422 3.9 21:12:26 10° W 21:14:14 29° NNW 21:16:03 10° NE
STARLINK-1440 3.9 21:12:27 10° W 21:14:14 29° NNW 21:16:03 10° NE
STARLINK-1445 3.9 21:12:28 10° W 21:14:15 29° NNW 21:16:04 10° NE
STARLINK-1443 3.9 21:12:29 10° W 21:14:16 29° NNW 21:16:05 10° NE
STARLINK-1446 3.9 21:12:29 10° W 21:14:17 29° NNW 21:16:05 10° NE
STARLINK-1454 3.9 21:12:30 10° W 21:14:17 29° NNW 21:16:06 10° NE
STARLINK-1457 3.9 21:12:30 10° W 21:14:17 29° NNW 21:16:06 10° NE
STARLINK-1456 3.9 21:12:31 10° W 21:14:18 29° NNW 21:16:06 10° NE
STARLINK-1222 4.4 21:11:29 10° NW 21:14:18 31° NNE 21:16:07 17° E
STARLINK-1451 3.9 21:12:31 10° W 21:14:18 29° NNW 21:16:07 10° NE
STARLINK-1447 3.9 21:12:32 10° W 21:14:19 29° NNW 21:16:06 10° NE
STARLINK-1455 3.9 21:12:31 10° W 21:14:19 29° NNW 21:16:07 10° NE
STARLINK-1442 3.9 21:12:31 10° W 21:14:19 29° NNW 21:16:07 10° NE
STARLINK-1449 3.9 21:12:32 10° W 21:14:19 29° NNW 21:16:07 10° NE
STARLINK-1448 3.9 21:12:32 10° W 21:14:20 29° NNW 21:16:08 10° NE
STARLINK-1441 3.9 21:12:32 10° W 21:14:20 29° NNW 21:16:08 10° NE
STARLINK-1405 3.9 21:12:33 10° W 21:14:21 29° NNW 21:16:09 10° NE
STARLINK-1423 3.9 21:12:33 10° W 21:14:21 29° NNW 21:16:09 10° NE
STARLINK-1421 3.9 21:12:33 10° W 21:14:21 29° NNW 21:16:09 10° NE
STARLINK-1410 3.9 21:12:34 10° W 21:14:21 29° NNW 21:16:09 10° NE
STARLINK-1407 3.9 21:12:34 10° W 21:14:22 29° NNW 21:16:10 10° NE
STARLINK-1400 3.9 21:12:34 10° W 21:14:22 29° NNW 21:16:10 10° NE
USA 238 DEB 3.9 21:07:06 10° NW 21:14:22 87° SW 21:19:44 21° SSE
STARLINK-1439 3.9 21:12:35 10° W 21:14:22 29° NNW 21:16:10 10° NE
STARLINK-1409 3.9 21:12:36 10° W 21:14:23 29° NNW 21:16:11 10° NE
STARLINK-1351 3.9 21:12:36 10° W 21:14:23 29° NNW 21:16:11 10° NE
STARLINK-1434 3.9 21:12:36 10° W 21:14:24 29° NNW 21:16:12 10° NE
STARLINK-1418 3.9 21:12:36 10° W 21:14:24 29° NNW 21:16:12 10° NE
STARLINK-1370 3.9 21:12:36 10° W 21:14:24 29° NNW 21:16:12 10° NE
STARLINK-1403 3.9 21:12:38 10° W 21:14:25 29° NNW 21:16:13 10° NE
STARLINK-1433 3.9 21:12:38 10° W 21:14:25 29° NNW 21:16:13 10° NE
Cosmos 1092 Rocket 3.9 21:08:42 12° S 21:14:26 74° E 21:20:35 10° NNE
STARLINK-1411 3.9 21:12:40 10° W 21:14:27 29° NNW 21:16:15 10° NE
STARLINK-1438 3.9 21:12:40 10° W 21:14:28 29° NNW 21:16:15 10° NE
STARLINK-1412 3.9 21:12:40 10° W 21:14:28 29° NNW 21:16:16 10° NE
USA 238 3.9 21:07:12 10° NW 21:14:29 88° SW 21:19:50 21° SSE
Cosmos 968 Rocket 4.2 21:10:06 10° N 21:14:58 41° ENE 21:17:48 22° ESE
Landsat 7 3.8 21:11:34 19° SSE 21:15:01 84° WSW 21:19:49 10° NNW
STARLINK-1214 4.3 21:12:38 10° NW 21:15:28 31° NNE 21:17:14 18° E
Cosmos 1975 Rocket 3.0 21:14:16 20° S 21:17:15 66° E 21:21:38 10° NNE
STARLINK-29 3.3 21:14:12 10° WSW 21:17:24 67° NW 21:20:37 10° NE
Cosmos 1025 Rocket 4.4 21:17:47 21° ESE 21:18:44 22° E 21:22:05 10° NE
STARLINK-1234 3.9 21:16:18 10° NW 21:19:39 45° NNE 21:21:27 23° E
STARLINK-1228 3.9 21:17:12 10° NW 21:20:39 47° NNE 21:22:31 23° E
Cosmos 1378 3.9 21:19:18 10° SSW 21:22:54 50° W 21:26:31 10° N
COSMOS 2455 3.4 21:21:21 22° SSE 21:24:31 36° ESE 21:29:58 10° NE
Cosmos 2195 Rocket 4.5 21:19:52 15° S 21:25:16 77° E 21:31:31 10° N
BREEZE-M DEB (TANK) 4.5 21:05:29 10° WSW 21:26:39 75° NNW 21:31:21 10° ENE
Cosmos 1805 3.7 21:22:53 10° NNW 21:26:46 58° W 21:29:06 22° SSW
STARLINK-1377 4.1 21:28:58 33° ESE 21:28:58 33° ESE 21:32:10 10° ENE
STARLINK-1187 3.7 21:26:29 10° NW 21:29:36 46° NNE 21:30:51 29° E
Cosmos 1627 Rocket 4.5 21:26:40 17° S 21:31:45 79° E 21:38:10 10° N
Cosmos 1470 3.5 21:28:14 10° N 21:31:50 36° ENE 21:32:50 31° ESE
STARLINK-1353 4.0 21:32:52 36° SE 21:32:52 36° SE 21:36:21 10° ENE
Meteor 1-22 Rocket 4.3 21:28:46 10° NNW 21:34:34 78° W 21:38:09 23° S
STARLINK-1375 4.0 21:35:42 36° ESE 21:35:42 36° ESE 21:38:52 10° ENE
Cosmos 1726 4.1 21:34:14 10° NNE 21:36:40 16° ENE 21:37:13 16° E
Spot 2 Rocket 4.3 21:34:57 16° SSW 21:38:42 44° W 21:43:32 10° NNW
Milstar 3 Cent rocket 4.4 21:31:49 10° SW 21:39:55 37° SSE 21:55:37 10° E
STARLINK-1350 3.7 21:40:46 42° SE 21:40:58 43° SE 21:44:43 10° ENE
Cosmos 1733 3.6 21:37:47 10° NNW 21:41:31 58° W 21:43:09 30° SSW
Cosmos 1842 3.4 21:39:48 25° SSW 21:41:55 72° W 21:45:49 10° N
STARLINK-1346 4.4 21:44:17 24° ENE 21:44:17 24° ENE 21:45:45 10° ENE
STARLINK-1357 4.5 21:45:44 23° ENE 21:45:44 23° ENE 21:47:06 10° ENE
RESURS DK-1 4.1 21:45:05 18° E 21:45:05 18° E 21:47:09 10° ENE
STARLINK-1335 4.5 21:46:00 23° ENE 21:46:00 23° ENE 21:47:24 10° ENE
STARLINK-1327 4.5 21:46:23 23° ENE 21:46:23 23° ENE 21:47:47 10° ENE
STARLINK-1340 4.5 21:46:44 24° ENE 21:46:44 24° ENE 21:48:09 10° ENE
STARLINK-1352 3.6 21:44:46 45° SSE 21:45:09 47° SE 21:48:57 10° ENE
STARLINK-1356 4.4 21:47:02 24° ENE 21:47:02 24° ENE 21:48:29 10° ENE
STARLINK-1345 4.4 21:47:21 24° ENE 21:47:21 24° ENE 21:48:49 10° ENE
STARLINK-1355 4.4 21:47:39 25° ENE 21:47:39 25° ENE 21:49:07 10° ENE
STARLINK-1321 4.4 21:48:00 25° ENE 21:48:00 25° ENE 21:49:27 10° ENE
STARLINK-1358 4.4 21:48:21 25° ENE 21:48:21 25° ENE 21:49:50 10° ENE
STARLINK-1332 4.4 21:48:38 25° ENE 21:48:38 25° ENE 21:50:08 10° ENE
STARLINK-1348 4.4 21:48:58 25° ENE 21:48:58 25° ENE 21:50:29 10° ENE
STARLINK-1330 4.4 21:49:18 26° ENE 21:49:18 26° ENE 21:50:49 10° ENE
Cosmos 1455 Rocket 3.0 21:43:39 10° N 21:48:00 84° W 21:49:41 37° S
STARLINK-1363 4.3 21:49:37 26° ENE 21:49:37 26° ENE 21:51:08 10° ENE
STARLINK-1337 4.3 21:49:57 26° ENE 21:49:57 26° ENE 21:51:30 10° ENE
STARLINK-1342 4.3 21:50:17 26° ENE 21:50:17 26° ENE 21:51:51 10° ENE
Meteor 2-13 Rocket 4.4 21:44:29 21° S 21:48:50 89° E 21:55:03 10° N
STARLINK-1364 4.3 21:50:37 27° ENE 21:50:37 27° ENE 21:52:12 10° ENE
STARLINK-1368 3.6 21:48:46 46° SSE 21:49:20 51° SE 21:53:10 10° ENE
STARLINK-1376 4.3 21:50:56 27° ENE 21:50:56 27° ENE 21:52:32 10° ENE
STARLINK-1360 4.3 21:51:15 27° ENE 21:51:15 27° ENE 21:52:52 10° ENE
Cosmos 2263 4.3 21:44:14 10° SSW 21:49:49 77° WNW 21:55:28 10° NNE
STARLINK-1361 4.3 21:51:35 27° ENE 21:51:35 27° ENE 21:53:13 10° ENE
STARLINK-1367 4.2 21:51:50 29° ENE 21:51:50 29° ENE 21:53:33 10° ENE
STARLINK-1366 4.2 21:52:13 28° ENE 21:52:13 28° ENE 21:53:53 10° ENE
Cosmos 1953 3.5 21:47:57 10° NNE 21:51:25 27° ENE 21:51:59 26° E
SPOT 5 3.2 21:48:42 29° S 21:51:28 77° WSW 21:56:51 10° NNW
CENTAUR R/B 3.2 21:44:25 10° NW 21:52:38 88° WSW 21:57:55 28° SSE
STARLINK-52 4.5 21:49:54 10° W 21:52:56 38° NNW 21:55:59 10° NE
STARLINK-1369 3.5 21:52:47 46° S 21:53:33 55° SE 21:57:25 10° ENE
S3M 4.4 21:47:42 10° N 21:53:41 48° ENE 21:56:24 30° SE
Cosmos 2026 Rocket 4.1 21:48:44 17° SSW 21:53:42 77° W 22:00:06 10° N
Cosmos 1503 Rocket 4.1 21:49:20 10° NNW 21:54:39 66° ENE 21:56:49 36° SE
CARTOSAT-1 4.0 21:54:32 31° SSW 21:56:21 56° W 22:00:37 10° NNW
Cosmos 1271 Rocket 2.6 21:56:17 49° S 21:57:17 81° E 22:01:15 10° NNE
STARLINK-1372 3.4 21:56:48 44° SSW 21:57:46 60° SE 22:01:40 10° ENE
SL-4 R/B 3.7 21:54:32 10° W 21:59:04 42° NNW 22:03:41 10° NE
ATLAS 3B R/B 3.1 21:53:14 10° NNW 21:59:54 55° NE 22:04:04 24° ESE
Terra 1.8 21:58:22 38° S 22:00:12 85° W 22:05:00 10° NNW
STARLINK-1378 3.3 21:59:49 51° SSW 22:00:33 64° SE 22:04:25 10° ENE
Cosmos 1943 Rocket 3.9 21:58:02 10° WSW 22:02:59 32° NW 22:08:01 10° N
BREEZE-M DEB (TANK) 3.2 21:53:27 10° SW 22:03:14 48° SSE 22:06:43 10° ENE
STARLINK-1379 3.3 22:03:11 53° SSW 22:03:53 68° SE 22:07:45 10° ENE
Cosmos 1553 Rocket 3.9 21:58:33 10° N 22:04:49 79° E 22:07:36 35° SSE
FALCON 9 DEB 4.1 22:02:49 10° WSW 22:06:09 48° NNW 22:09:30 10° NE
STARLINK-1329 3.3 22:06:16 50° SSW 22:07:08 72° SE 22:11:01 10° ENE
Cosmos 1174 3.3 22:06:48 66° SW 22:07:11 80° WNW 22:10:51 10° NNE
ATLAS CENTAUR R/B 1.8 22:04:18 11° SW 22:08:31 64° NW 22:12:39 10° NNE
Cosmos 1707 2.6 22:08:17 62° SSE 22:08:51 80° E 22:12:45 10° N
Cosmos 1833 4.1 22:03:27 10° NNW 22:09:07 85° WSW 22:11:17 40° SSE
SL-27 R/B 4.1 22:06:24 10° NW 22:09:21 25° W 22:10:06 23° WSW
Cosmos 1758 3.3 22:05:34 10° N 22:09:40 88° W 22:10:28 57° S
STARLINK-1235 3.2 22:07:09 10° WNW 22:10:14 64° WSW 22:10:14 64° WSW
SeaSat 1 3.7 22:07:30 10° NE 22:11:04 24° E 22:11:04 24° E
NOSS 3-2 (C) 4.3 22:04:48 10° NW 22:12:25 63° WSW 22:16:47 31° S
STARLINK-1362 3.3 22:11:07 40° SW 22:12:26 80° SE 22:16:22 10° NE
COSMOS 2487 2.8 22:10:23 10° N 22:13:45 52° ENE 22:13:45 52° ENE
Cosmos 1354 Rocket 4.0 22:11:10 10° NNW 22:16:31 89° ENE 22:18:14 45° SSE
STARLINK-1373 3.3 22:15:16 37° SW 22:16:45 86° SSE 22:20:42 10° NE
Cosmos 1536 Rocket 3.4 22:16:14 54° S 22:17:13 86° E 22:21:37 10° N
NOSS 3-4 (A) 3.8 22:13:42 10° SW 22:19:33 63° NW 22:25:50 10° NNE
STARLINK-1390 3.3 22:18:23 42° SW 22:19:37 90° SE 22:23:30 10° NE
NOSS 3-4 (C) 3.8 22:13:47 10° SW 22:19:39 64° NW 22:25:56 10° NNE
EO 1 Del DPAF 4.0 22:16:43 10° NNE 22:19:51 38° E 22:19:51 38° E
STARLINK-1238 4.4 22:19:26 10° NW 22:23:27 46° NNE 22:24:55 32° E
Cosmos 1656 Rocket 4.2 22:18:59 13° SW 22:24:00 58° WNW 22:29:31 10° NNE
Cosmos 1242 Rocket 4.3 22:22:43 20° WSW 22:24:24 28° WNW 22:27:39 10° NNW
STARLINK-1365 3.5 22:22:30 24° WSW 22:24:51 81° NNW 22:28:50 10° NE
Cosmos 1544 Rocket 4.3 22:21:09 10° NNW 22:25:18 45° W 22:26:32 35° SW
Cosmos 2266 Rocket 4.0 22:24:05 41° SSE 22:26:05 62° E 22:32:03 10° NNE
Meteor 1-16 Rocket 4.3 22:21:15 10° N 22:26:38 60° ENE 22:28:05 44° SE
Cosmos 2084 3.4 22:26:10 62° S 22:26:46 72° ESE 22:31:14 10° NE
Cosmos 1655 Rocket 3.9 22:25:20 36° S 22:28:05 88° E 22:34:24 10° N
STARLINK-1201 4.3 22:24:24 10° NW 22:28:27 50° NNE 22:29:42 36° E
STARLINK-1206 4.2 22:29:21 10° NW 22:33:26 53° NNE 22:34:29 41° E
Cosmos 2369 Rocket 4.2 22:30:12 10° WSW 22:34:57 27° NW 22:39:41 10° N
STARLINK-1205 4.1 22:34:19 10° NW 22:38:25 57° NNE 22:39:15 47° ENE
STARLINK-1338 3.8 22:37:51 29° WSW 22:39:36 62° NNW 22:43:22 10° NE
Cosmos 2227 Rocket 4.2 22:35:29 10° N 22:39:40 20° NE 22:43:18 12° E
Spot 4 4.0 22:42:23 53° SE 22:43:18 65° ENE 22:48:07 10° N
STARLINK-1218 3.9 22:39:19 10° NW 22:43:26 62° NNE 22:44:04 53° ENE
Cosmos 2292 Rocket 3.5 22:44:12 52° NNE 22:44:12 52° NNE 22:46:36 10° N
ATLAS 2AS CENTAUR R/B 3.9 22:40:08 10° WSW 22:47:50 50° NW 22:55:32 10° NNE
STARLINK-1254 3.8 22:44:16 10° NW 22:48:23 67° NNE 22:48:49 61° ENE
Cosmos 2098 Rocket 4.4 22:45:55 41° SSE 22:48:41 68° E 22:56:03 10° NNE
STARLINK-1371 4.1 22:46:30 19° WSW 22:49:03 54° NNW 22:52:50 10° NE
Cosmos 1908 3.6 22:46:17 10° N 22:49:45 51° ENE 22:49:45 51° ENE
Cosmos 2058 Rocket 4.4 22:46:33 10° NNE 22:50:22 27° ENE 22:50:50 26° E
Cosmos 883 Rocket 4.4 22:44:20 10° N 22:50:30 79° E 22:52:19 48° SSE
Cosmos 1606 Rocket 3.8 22:47:10 10° N 22:51:26 53° E 22:51:37 52° E
Meteor 2-5 Rocket 4.0 22:51:49 44° ESE 22:52:45 49° E 22:58:09 10° NNE
STARLINK-1341 4.2 22:50:24 17° WSW 22:53:06 51° NNW 22:56:51 10° NE
STARLINK-1231 3.6 22:49:13 10° NW 22:53:21 73° NNE 22:53:35 70° ENE
ALOS 2 3.4 22:53:44 38° E 22:54:13 39° ENE 22:58:19 10° N
Cosmos 1867 4.3 22:49:47 10° NW 22:54:49 39° WSW 22:55:40 37° SW
KORONAS-FOTON 4.0 22:56:12 64° NE 22:56:12 64° NE 22:59:38 10° NNE
STARLINK-1374 4.3 22:54:13 16° W 22:57:00 48° NNW 23:00:45 10° NE
STARLINK-1232 3.6 22:54:14 10° NW 22:58:23 79° NE 22:58:24 79° NE
CZ-4C R/B 3.6 22:59:36 21° E 22:59:36 21° E 23:02:44 10° ENE
STARLINK-1339 4.5 22:58:04 15° W 23:01:00 45° NNW 23:04:42 10° NE
In-Cosmos 22 4.3 22:59:30 41° SW 23:01:10 61° WNW 23:06:25 10° N
STARLINK-1208 3.6 22:59:11 10° NW 23:03:10 81° NNW 23:03:10 81° NNW
Cosmos 1300 4.3 23:02:04 10° NNE 23:05:03 25° ENE 23:05:03 25° ENE
STARLINK-1271 3.7 23:04:11 10° NW 23:07:58 73° WNW 23:07:58 73° WNW
COSMOS 2455 4.0 23:04:44 10° WSW 23:10:22 41° NW 23:16:03 10° NNE
Cosmos 1674 3.0 23:11:24 60° NW 23:11:24 60° NW 23:14:51 10° N
Nimbus 7 Rocket 4.4 23:05:15 10° NNE 23:11:20 75° ESE 23:12:50 52° S
Cosmos 1726 3.5 23:08:36 10° NNW 23:11:43 31° W 23:11:43 31° W
STARLINK-1154 3.8 23:09:09 10° NW 23:12:44 64° WNW 23:12:44 64° WNW
Cosmos 1340 Rocket 3.9 23:10:05 10° NNW 23:13:48 35° W 23:13:48 35° W
Cosmos 1777 Rocket 3.9 23:10:38 10° NNW 23:15:52 76° WSW 23:16:35 64° SSW
Cosmos 921 Rocket 2.9 23:18:04 78° ENE 23:18:04 78° ENE 23:22:15 10° NNE
STARLINK-1197 4.0 23:14:07 10° WNW 23:17:30 56° WNW 23:17:30 56° WNW
Cosmos 2228 2.9 23:14:16 10° N 23:18:24 78° WNW 23:18:24 78° WNW
Thor Agena Rocket 4.3 23:14:26 10° N 23:19:30 48° WNW 23:21:25 33° WSW
Cosmos 220 Rocket 3.9 23:20:04 80° ENE 23:20:04 80° ENE 23:24:24 10° NNE
RESURS DK-1 3.6 23:20:55 32° W 23:21:55 37° WNW 23:25:48 10° N
STARLINK-1198 4.2 23:19:08 10° WNW 23:22:18 49° WNW 23:22:18 49° WNW
Timation 2 Rocket 3.8 23:17:46 10° NNW 23:24:00 76° WSW 23:25:18 56° S
Lacrosse 4 Rocket 3.7 23:21:54 10° N 23:25:01 19° NE 23:26:59 15° E
Cosmos 1980 Rocket 4.3 23:25:34 13° E 23:25:42 13° E 23:27:59 10° ENE
Okean 1-7 Rocket 3.6 23:25:56 71° E 23:25:56 71° E 23:30:25 10° NNE
BREEZE-M R/B 3.9 23:16:15 10° WSW 23:25:58 83° NNW 23:30:22 10° ENE
Cosmos 1953 4.2 23:24:37 10° NW 23:27:37 21° W 23:27:41 21° W
STARLINK-1199 4.4 23:24:06 10° WNW 23:27:04 43° W 23:27:04 43° W
USA 215 4.1 23:27:54 10° E 23:34:08 49° NNE 23:40:23 10° NW
Cosmos 1892 Rocket 3.5 23:34:23 75° WNW 23:34:23 75° WNW 23:38:43 10° N
Cosmos 1726 Rocket 3.7 23:30:46 10° NNW 23:34:55 63° W 23:34:55 63° W
Cosmos 1809 Rocket 4.4 23:33:52 52° SSW 23:35:29 81° W 23:41:44 10° N
Meteor 1-24 Rocket 3.5 23:36:46 66° S 23:37:35 89° E 23:43:08 10° N
Helios 1A 3.2 23:38:21 62° ENE 23:38:21 62° ENE 23:42:23 10° N
ATLAS 5 CENTAUR R/B 4.1 23:36:17 10° W 23:38:44 16° NW 23:40:22 10° N
SL-4 R/B 4.5 23:35:31 10° WNW 23:39:42 28° N 23:43:52 10° ENE
Nadezhda 2 Rocket 4.4 23:40:15 52° SSW 23:41:49 76° W 23:48:00 10° N
Cosmos 2315 Rocket 4.4 23:35:56 10° NNW 23:41:55 51° W 23:43:30 41° SW
Cosmos 1626 2.7 23:42:49 55° N 23:42:49 55° N 23:45:49 10° N
SJ 16-02 2.2 23:40:18 10° N 23:44:30 41° ENE 23:44:59 40° E
STARLINK-1244 4.4 23:41:22 10° NW 23:45:24 48° NNE 23:46:14 41° ENE
Cosmos 2297 Rocket 2.3 23:41:01 10° NNW 23:46:41 69° ENE 23:48:02 51° SE
Cosmos 1656 3.6 23:48:16 63° SSE 23:48:59 72° ESE 23:54:35 10° NNE
Cosmos 2219 3.1 23:43:18 10° NNW 23:49:00 87° ENE 23:50:00 62° SSE
SeaSat 1 3.2 23:44:27 10° NNE 23:49:10 47° WNW 23:50:50 34° WSW
ATLAS 3B R/B 3.5 23:44:19 10° NW 23:50:20 34° WSW 23:51:18 32° SW
STARLINK-1138 4.3 23:46:19 10° NW 23:50:23 52° NNE 23:51:00 47° ENE
Cosmos 468 Rocket 4.2 23:52:35 53° ESE 23:52:45 54° ESE 23:57:44 10° NNE
STARLINK-1143 4.1 23:51:18 10° NW 23:55:23 56° NNE 23:55:48 53° ENE
